星链-5338 (STARLINK-5338 )

导读 | 豆包AI

STARLINK-5338是美国SpaceX星链星座的成员,于2023年1月19日发射升空,旨在为全球提供低延迟、高速率的卫星互联网覆盖服务。它运行在近地轨道,通过星间链路与同星座卫星协同组网,进一步扩大了星链系统的全球服务覆盖范围,推动低轨卫星互联网的部署进程。

Basic Information
目录编号:
55286
目录名称:
STARLINK-5338
国际标识:
2023-010T
轨道中心:
EARTH
卫星名称:
星链-5338
卫星全名:
星链-5338 (STARLINK-5338 )
卫星状态:
在轨 (已飞行1197 天)
发射日期:
2023-01-19 UTC
国别 :
美国 (US)
星等 :
--
Orbit Information
数据来源 国际轨道数据 AOE轨道数据
星历时间 2026-04-30T03:13:25+0800
19小时前
查看轨道信息
2026-04-24T13:00:00+0800
6天前
查看轨道信息
半长轴 6950.184km 6950.126km
偏心率 0.0002998 0.0002886
轨道倾角 70.000° 69.999°
近地点辐角 268.291° 275.388°
升交点赤经 255.644° 269.742°
平近点角 91.791° 166.509°
近地点 569.963km 569.983km
远地点 574.131km 573.995km
周期 96.107分钟 96.106分钟
每日圈数 14.983329 14.983519
Detailed Information
固有亮度:
5
最大亮度:
2.5
卫星平台:
Starlink v1.5
覆盖范围:
全球
运营商:
太空探索技术公司
运营商所在国:
美国
制造商(研发单位):
太空探索技术公司
制造商所在国:
美国
使用方式:
暂无
Satellite Introduction
星链(Starlink)计划是由太空探索技术公司(SpaceX)提出的一个巨型低轨卫星互联网星座项目,计划在2019年至2024年间在太空搭建由约1.2万颗卫星组成的“星链”网络,其中1584颗将部署在地球上空550千米处的近地轨道,并从2020年开始工作。该卫星仍在工作。
2D Orbit Map
3D Orbit Map
Orbit Altitude Analysis Chart
Orbit Inclination Analysis Chart
Orbit Comprehensive Analysis Chart
View Comprehensive Chart